Location: El Frío
(10.0713°N, 67.9111°W)
Time: 18:34:31
(UTC+00:00)

Meteor 2-2 Rocket - Pass Details

Date: 11 December 2025
Orbit: 852 x 927 km, 81.3° (Epoch: 20 January)

Event Time Altitude Azimuth Distance (km) Brightness Sun altitude
Rises 22:28:32 0° 183° (S) 3,477 7.8 -4.7°
Reaches altitude 10° 22:31:00 10° 182° (S) 2,527 7.0 -5.2°
Maximum altitude 22:36:44 81° 94° (E) 877 4.3 -6.5°
Drops below altitude 10° 22:42:22 10° 8° (N) 2,484 6.4 -7.8°
Sets 22:44:46 0° 7° (N) 3,415 7.1 -8.4°
